Find Starlink 3928

NORAD ID: 52606 Int'l Des: 2022-052 Owner: SPXS Country: US Constellation: starlink operational
LEOCIRCULAR

現在のビュー

3D地球を読み込み中...

About Starlink 3928

Starlink 3928 (NORAD 52606) is a starlink constellation satellite (v1.5) launched May 14, 2022 by SPXS of US. It operates in LEO, CIRCULAR orbit with a mass of 297.00 kg.

次回通過

Passes for default location (London). Set your location on the main map for personalized predictions.

高度履歴

Loading altitude history...

軌道要素

1 52606U 22052J 26235.72383634 .00000493 00000-0 39713-4 0 9997
2 52606 53.1604 246.8374 0001364 63.4956 296.6179 15.17588564236103
Epoch: Aug 23, 2026 • Age: 17 hours

現在のステータス

高度 530.0 km
遠地点 / 近地点 N/A
速度 7.60 km/s
衛星直下点 -47.46°S, 59.6°E
打ち上げ日 May 14, 2022
運用期間 4.2 years
タイプ internet

技術仕様

分類 Payload
質量 297.00 kg
乾燥質量 275.00 kg
総質量 297.00 kg
長さ 0.20 m
直径 2.80 m
スパン 9.00 m
形状 Box + pan
製造者 SPXS
バスタイプ Starlink
フェーズステータス In Orbit
所有者/国 SPXS/US

Most Searched